Location: Bonnesvalyn
(49.1218°N, 3.3177°E)
Time: 08:45:40
(UTC+00:00)

Okean O Rocket - Pass Details

Date: 09 February 2023
Orbit: 620 x 643 km, 98.1° (Epoch: 23 March)

Event Time Altitude Azimuth Distance (km) Brightness Sun altitude
Rises 18:08:29 0° 142° (SE) 2,923 4.7 -12.2°
Reaches altitude 10° 18:10:47 10° 134° (SE) 2,023 3.8 -12.6°
Maximum altitude 18:14:50 37° 67° (ENE) 999 2.1 -13.2°
Drops below altitude 10° 18:18:56 10° 0° (N) 2,048 4.2 -13.9°
Sets 18:21:16 0° 353° (N) 2,964 5.1 -14.3°
